Hourly Weather Roundup
Issued by NWS Central Illinois

Home | Current Version | Previous Version | Text Only | Print | Product List | Glossary On
Versions: 1 2 3 4 5 6 7 8 9 10 11 12 13 14 15 16 17 18 19 20 21 22 23 24 25 26 27 28 29 30 31 32 33 34 35 36 37 38 39 40 41 42 43 44 45 46 47 48 49 50
000
NZUS43 KILX 011910
HWRILX

AREA WEATHER ROUNDUP
NATIONAL WEATHER SERVICE, LINCOLN IL
200 PM CDT TUE SEP 01 2015


CITY           SKY/WX    TMP DP  RH WIND       PRES   REMARKS
BLOOMINGTON    MOSUNNY   89  74  61 S14       30.07F HX  97
CHAMPAIGN      CLOUDY    83  71  67 S6        30.08F HX  87
DANVILLE       RAIN      75  69  80 S8        30.07F
DECATUR        MOSUNNY   90  71  53 S12       30.06F HX  96
EFFINGHAM      MOSUNNY   87  66  50 S8        30.10F HX  89
FLORA          MOSUNNY   89  67  49 SW6       30.09F HX  92
GALESBURG      SUNNY     89  70  52 SW12      30.03S HX  94
JACKSONVILLE   SUNNY     92  68  44 S7        30.05S HX  96
LACON          SUNNY     89  72  57 S8        30.02S HX  95
LAWRENCEVILLE  MOSUNNY   87  67  51 CALM      30.10F HX  90
LITCHFIELD     SUNNY     88  69  53 S7        30.07F HX  92
$$


CITY           SKY/WX    TMP DP  RH WIND       PRES   REMARKS
LINCOLN        MOSUNNY   93  67  42 SW7       30.03F HX  97
MACOMB         SUNNY     92  67  44 SW8       30.05S HX  95
MATTOON        MOSUNNY   85  69  58 S7        30.08F HX  89
MT CARMEL AP   PTSUNNY   86  66  51 S5        30.09F HX  88
OLNEY-NOBLE AP MOSUNNY   86  70  58 SW5       30.10F HX  90
PARIS          CLOUDY    81  72  75 S8        30.10F HX  85
PEORIA         SUNNY     94  67  41 SW10      30.03F HX  97
PONTIAC        SUNNY     85  75  71 S12       30.06F HX  93
RANTOUL        PTSUNNY   78  73  83 SW6       30.08F HX  81
ROBINSON       MOSUNNY   85  68  56 S10       30.11F HX  88
SPRINGFIELD    PTSUNNY   92  70  48 W9        30.05F HX  97
TAYLORVILLE    PTSUNNY   90  70  51 S8        30.06S HX  95
$$

...REGIONAL REPORTS...


CITY           SKY/WX    TMP DP  RH WIND       PRES   REMARKS
CHICAGO O`HARE MOSUNNY   87  71  58 SW10G20   30.01F HX  93
KANKAKEE       SUNNY     85  71  62 SW14      30.06F HX  90
MOLINE         SUNNY     90  72  55 S10       29.99F HX  97
MOUNT STERLING SUNNY     89  69  50 S6        30.04S HX  94
MOUNT VERNON   SUNNY     90  70  51 SW9       30.10F HX  95
PITTSFIELD     SUNNY     91  68  47 S9        30.06F HX  95
QUINCY         SUNNY     91  68  46 SW8       30.03F HX  95
ROCKFORD       MOSUNNY   88  71  57 SW9       30.02F HX  94
$$


CITY           SKY/WX    TMP DP  RH WIND       PRES   REMARKS
BURLINGTON     SUNNY     90  71  53 SW9       30.01F HX  96
CEDAR RAPIDS   SUNNY     86  75  69 S13       29.98S HX  95
DES MOINES     PTSUNNY   88  71  57 S10       29.96S HX  94
KIRKSVILLE     SUNNY     89  68  49 SW12      30.04F HX  93
OTTUMWA        SUNNY     88  72  58 S14       29.98S HX  94
ST LOUIS       MOSUNNY   93  67  42 S9        30.07F HX  96
$$


CITY           SKY/WX    TMP DP  RH WIND       PRES   REMARKS
TERRE HAUTE    CLOUDY    84  68  58 VRB6      30.10F HX  87
EVANSVILLE     PTSUNNY   87  67  51 VRB5      30.10F HX  90
INDIANAPOLIS   CLOUDY    83  64  52 W7        30.12S HX  84
LAFAYETTE      MOSUNNY   84  67  56 SW7       30.07F HX  86
MADISON        PTSUNNY   87  70  56 S14       29.98F HX  92
MILWAUKEE      PTSUNNY   89  68  49 SW13G23   29.99F HX  93
$$




USA.gov is the U.S. government's official web portal to all federal, state and local government web resources and services.